CZ-6A DEB, 54283

Orbit data source: Space-Track

CZ-6A DEB, 54283 is space debris in SSO originally from a launch on Fri, 11 Nov 2022 UTC launched from the Taiyaun Space Center, China (TSC). Debris objects in space refer to the collection of defunct objects orbiting the Earth. Examples of debris include non-operational satellites, rocket bodies, and fragments generated from explosions, collisions, or faulty payload assembly.

Loading next visibility...
Identifier
54283, 2022-151AA
Orbit
SSO
Country
Flag of CNCN / PRC
Related business
Manufacturer
SAST
Mission
Spacecraft
Bus & Motor
Unknown
Mass
Unknown
Launch date (UTC)
2022-11-11 (3 years ago)
Launch vehicle
Unknown
Launch site
Taiyaun Space Center, China (TSC)
Object type
Payload
Rocket body
Debris
Shape & HBR
Unknown shape, 0.2 m
Radar Cross Section
Small (<0.1 m²)

Expand to show TLE details & history
Last TLE update: 10 hours ago

TLE from 10 hours ago
0 CZ-6A DEB
1 54283U 22151AA  25351.72326325  .00000185  00000-0  13008-3 0  9998
2 54283  98.8249 345.1878 0053181 143.9023 216.5756 14.08886658158741
Epoch: 2025-12-17T17:21Z
TLE epoch observation values (Epoch: 2025-12-17T17:21:29.944Z)
Latitude
-0.00005°
Longitude
-1.77599°
Altitude
897.085 km
Speed
7.388 km/s
True Right ascension
23h 00m 45s
True Declination
0° 00' 00"
Sunlit
Object was in daylight at epoch
Visualization orbit readout
Latitude
Unknown
Longitude
Unknown
Altitude
Unknown
Speed
Unknown
Apparent Right ascension
Unknown
Apparent Declination
Unknown
Sunlit
N/A
Visualization observer readout
Local Sidereal Time
02:10:43
Azimuth
Unknown
Elevation
Unknown
Doppler factor
Unknown
Orbital elements
Apogee altitude
898.858 km
Perigee altitude
821.868 km
Semi-major axis
7,238.5 km
Eccentricity
0.00532
Inclination
98.8249°
RAAN
345.1878°
Arg. of periapsis
143.9023°
True anomaly
216.21439°
Mean anomaly
216.5756°
Eccentric anomaly
216.3948°
Mean motion
3.52428 °/min
Orbital period
102.15 mins
BSTAR
0.00013008
Loading maneuver chart data...
Computing Atmospheric mass density...
Loading historical data...
Loading historical data...
Loading historical data...
Loading historical data...
Loading historical data...
Loading historical data...
Loading historical data...

Documentation

Showing up to 5 results
|